RYR8602 EDDB-LICR

Flight info

Callsign RYR8602
Flight time 2h 15m
Altitude 36000
Route LUROS3B LUROS Y211 BEBKU DCT MAREM/N0457F370 DCT APRAQ DCT BUDEX DCT ADLET DCT ROPUS DCT SUXUB DCT SOR/N0397F190 Q58 FOSQA FOSQA1Q
Aircraft B38M/M-SDE1FGHILORVWXY/HB1

Departure

Time 2026-05-06 13:58
Airport Berlin Brandenburg Airport (EDDB)

Arrival

Time 2026-05-06 16:13
Airport Reggio Calabria Airport (LICR)
Time Latitude Longitude Altitude Speed Heading
2026-05-06 13:23 52.36822 13.50856 157 ft 0 kts 159°
2026-05-06 13:45 52.36840 13.50845 157 ft 4 kts 162°
2026-05-06 13:45 52.36866 13.50836 158 ft 4 kts 178°
2026-05-06 13:46 52.36890 13.50843 158 ft 4 kts 215°
2026-05-06 13:46 52.36900 13.50861 158 ft 1 kts 249°
2026-05-06 13:51 52.36897 13.50850 158 ft 3 kts 248°
2026-05-06 13:51 52.36869 13.50732 158 ft 18 kts 249°
2026-05-06 13:51 52.36820 13.50521 158 ft 21 kts 249°
2026-05-06 13:51 52.36767 13.50299 156 ft 19 kts 249°
2026-05-06 13:52 52.36727 13.50131 153 ft 11 kts 257°
2026-05-06 13:52 52.36736 13.50074 152 ft 2 kts 304°
2026-05-06 13:52 52.36738 13.50071 152 ft 0 kts 307°
2026-05-06 13:53 52.36741 13.50066 152 ft 2 kts 314°
2026-05-06 13:53 52.36782 13.49991 150 ft 17 kts 281°
2026-05-06 13:54 52.36741 13.49782 150 ft 21 kts 249°
2026-05-06 13:54 52.36686 13.49556 150 ft 22 kts 249°
2026-05-06 13:54 52.36629 13.49317 150 ft 23 kts 249°
2026-05-06 13:54 52.36570 13.49066 150 ft 24 kts 250°
2026-05-06 13:55 52.36507 13.48804 150 ft 25 kts 248°
2026-05-06 13:55 52.36445 13.48540 150 ft 21 kts 248°
2026-05-06 13:55 52.36480 13.48388 149 ft 15 kts 342°
2026-05-06 13:55 52.36545 13.48353 151 ft 4 kts 339°
2026-05-06 13:56 52.36547 13.48351 151 ft 0 kts 339°
2026-05-06 13:56 52.36564 13.48341 151 ft 8 kts 338°
2026-05-06 13:56 52.36665 13.48284 154 ft 20 kts 351°
2026-05-06 13:56 52.36740 13.48374 157 ft 14 kts 69°
2026-05-06 13:57 52.36797 13.48616 159 ft 43 kts 68°
2026-05-06 13:57 52.36994 13.49446 160 ft 111 kts 69°
2026-05-06 13:57 52.37341 13.50911 177 ft 161 kts 67°
2026-05-06 13:57 52.37745 13.52674 737 ft 167 kts 67°
2026-05-06 13:58 52.38152 13.54486 1429 ft 175 kts 68°
2026-05-06 13:58 52.38597 13.56399 2097 ft 179 kts 66°
2026-05-06 13:58 52.39052 13.58298 2825 ft 183 kts 67°
2026-05-06 13:58 52.39532 13.60282 3430 ft 190 kts 66°
2026-05-06 13:59 52.40030 13.62323 4046 ft 198 kts 67°
2026-05-06 13:59 52.40444 13.64028 4482 ft 206 kts 68°
2026-05-06 13:59 52.40975 13.66250 5092 ft 215 kts 69°
2026-05-06 13:59 52.41525 13.68639 5539 ft 234 kts 69°
2026-05-06 14:00 52.42111 13.71296 5859 ft 263 kts 73°
2026-05-06 14:00 52.42296 13.74335 6455 ft 272 kts 101°
2026-05-06 14:00 52.41651 13.77209 7283 ft 269 kts 126°
2026-05-06 14:00 52.40371 13.79440 7954 ft 272 kts 150°
2026-05-06 14:01 52.38648 13.80656 8637 ft 271 kts 175°
2026-05-06 14:01 52.36779 13.80650 9395 ft 268 kts 191°
2026-05-06 14:01 52.34935 13.80240 10216 ft 271 kts 192°
2026-05-06 14:01 52.33058 13.79576 10671 ft 283 kts 199°
2026-05-06 14:02 52.31052 13.79055 11081 ft 304 kts 186°
2026-05-06 14:02 52.28875 13.78931 11373 ft 323 kts 186°
2026-05-06 14:02 52.26556 13.78770 11610 ft 343 kts 186°
2026-05-06 14:02 52.24139 13.78589 11825 ft 361 kts 186°
2026-05-06 14:03 52.21552 13.78381 12156 ft 374 kts 186°
2026-05-06 14:03 52.18922 13.78153 12643 ft 381 kts 186°
2026-05-06 14:03 52.16300 13.77903 13273 ft 384 kts 186°
2026-05-06 14:03 52.13625 13.77634 13880 ft 387 kts 186°
2026-05-06 14:04 52.10929 13.77354 14479 ft 389 kts 186°
2026-05-06 14:04 52.08216 13.77068 15088 ft 392 kts 186°
2026-05-06 14:04 52.05486 13.76780 15695 ft 394 kts 186°
2026-05-06 14:04 52.02739 13.76489 16299 ft 397 kts 186°
2026-05-06 14:05 51.99976 13.76197 16898 ft 399 kts 186°
2026-05-06 14:05 51.97197 13.75903 17478 ft 402 kts 186°
2026-05-06 14:05 51.94396 13.75609 18048 ft 405 kts 186°
2026-05-06 14:05 51.91574 13.75311 18525 ft 408 kts 187°
2026-05-06 14:06 51.88734 13.75010 18994 ft 410 kts 187°
2026-05-06 14:06 51.85873 13.74708 19461 ft 413 kts 187°
2026-05-06 14:06 51.82994 13.74405 19928 ft 416 kts 187°
2026-05-06 14:06 51.80097 13.74100 20375 ft 419 kts 187°
2026-05-06 14:07 51.77180 13.73793 20825 ft 422 kts 187°
2026-05-06 14:07 51.74239 13.73484 21268 ft 425 kts 187°
2026-05-06 14:07 51.71284 13.73174 21708 ft 427 kts 187°
2026-05-06 14:07 51.68307 13.72862 22144 ft 430 kts 187°
2026-05-06 14:08 51.65313 13.72548 22574 ft 433 kts 187°
2026-05-06 14:08 51.62300 13.72233 22989 ft 436 kts 187°
2026-05-06 14:08 51.59264 13.71916 23400 ft 438 kts 187°
2026-05-06 14:08 51.56212 13.71599 23768 ft 440 kts 187°
2026-05-06 14:09 51.53152 13.71280 24171 ft 441 kts 187°
2026-05-06 14:09 51.50086 13.70960 24575 ft 442 kts 187°
2026-05-06 14:09 51.47019 13.70640 24975 ft 442 kts 187°
2026-05-06 14:09 51.43946 13.70321 25356 ft 443 kts 186°
2026-05-06 14:10 51.40902 13.70003 25729 ft 444 kts 186°
2026-05-06 14:10 51.37772 13.69679 26085 ft 446 kts 186°
2026-05-06 14:10 51.34673 13.69356 26478 ft 445 kts 186°
2026-05-06 14:10 51.31605 13.69034 26943 ft 443 kts 186°
2026-05-06 14:11 51.28581 13.68716 27406 ft 440 kts 186°
2026-05-06 14:11 51.25528 13.68395 27878 ft 438 kts 186°
2026-05-06 14:11 51.22494 13.68078 28335 ft 436 kts 187°
2026-05-06 14:11 51.19477 13.67763 28790 ft 434 kts 187°
2026-05-06 14:12 51.16467 13.67450 29236 ft 432 kts 187°
2026-05-06 14:12 51.13472 13.67141 29671 ft 431 kts 187°
2026-05-06 14:12 51.10517 13.66835 30053 ft 429 kts 187°
2026-05-06 14:12 51.07528 13.66527 30378 ft 429 kts 187°
2026-05-06 14:13 51.04550 13.66221 30670 ft 429 kts 187°
2026-05-06 14:13 51.01568 13.65916 30966 ft 429 kts 187°
2026-05-06 14:13 50.98589 13.65613 31268 ft 429 kts 187°
2026-05-06 14:13 50.95618 13.65310 31568 ft 429 kts 187°
2026-05-06 14:14 50.92653 13.65009 31876 ft 428 kts 187°
2026-05-06 14:14 50.89675 13.64707 32176 ft 428 kts 188°
2026-05-06 14:14 50.86704 13.64407 32479 ft 427 kts 188°
2026-05-06 14:14 50.83742 13.64108 32773 ft 427 kts 188°
2026-05-06 14:15 50.80773 13.63808 33067 ft 427 kts 188°
2026-05-06 14:15 50.77815 13.63511 33375 ft 426 kts 188°
2026-05-06 14:15 50.74862 13.63215 33675 ft 425 kts 188°
2026-05-06 14:15 50.71900 13.63149 33936 ft 430 kts 178°
2026-05-06 14:16 50.68958 13.64227 34189 ft 437 kts 169°
2026-05-06 14:16 50.66015 13.65141 34364 ft 428 kts 183°
2026-05-06 14:16 50.63054 13.65082 34596 ft 426 kts 183°
2026-05-06 14:16 50.60075 13.65209 34765 ft 429 kts 182°
2026-05-06 14:17 50.57091 13.65363 34973 ft 429 kts 182°
2026-05-06 14:17 50.54105 13.65529 35185 ft 430 kts 182°
2026-05-06 14:17 50.51128 13.65698 35392 ft 430 kts 182°
2026-05-06 14:17 50.48129 13.65870 35600 ft 430 kts 182°
2026-05-06 14:18 50.45134 13.66042 35749 ft 431 kts 182°
2026-05-06 14:18 50.42146 13.66213 35769 ft 431 kts 182°
2026-05-06 14:18 50.36169 13.66555 35769 ft 429 kts 182°
2026-05-06 14:19 50.30209 13.66896 35766 ft 428 kts 182°
2026-05-06 14:19 50.24256 13.67235 35760 ft 428 kts 182°
2026-05-06 14:20 50.19320 13.67516 35777 ft 427 kts 182°
2026-05-06 14:20 50.13384 13.67853 35767 ft 427 kts 182°
2026-05-06 14:21 50.07463 13.68187 35771 ft 426 kts 182°
2026-05-06 14:21 50.01544 13.68522 35767 ft 425 kts 182°
2026-05-06 14:22 49.95634 13.68855 35766 ft 424 kts 182°
2026-05-06 14:22 49.89732 13.69186 35766 ft 424 kts 182°
2026-05-06 14:23 49.83836 13.69517 35770 ft 424 kts 182°
2026-05-06 14:23 49.77944 13.69846 35769 ft 424 kts 182°
2026-05-06 14:24 49.72049 13.70175 35770 ft 423 kts 182°
2026-05-06 14:24 49.66165 13.70502 35775 ft 423 kts 182°
2026-05-06 14:25 49.60284 13.70829 35771 ft 423 kts 182°
2026-05-06 14:25 49.54405 13.71154 35765 ft 422 kts 182°
2026-05-06 14:26 49.48537 13.71478 35764 ft 422 kts 182°
2026-05-06 14:26 49.42666 13.71802 35760 ft 422 kts 182°
2026-05-06 14:27 49.36826 13.72123 35764 ft 423 kts 182°
2026-05-06 14:27 49.30906 13.72447 35759 ft 423 kts 182°
2026-05-06 14:28 49.25062 13.72767 35763 ft 423 kts 182°
2026-05-06 14:28 49.19171 13.73089 35762 ft 424 kts 182°
2026-05-06 14:29 49.13279 13.73409 35759 ft 424 kts 183°
2026-05-06 14:29 49.07384 13.73730 35761 ft 423 kts 183°
2026-05-06 14:30 49.01493 13.74049 35748 ft 424 kts 183°
2026-05-06 14:30 48.95605 13.74367 35760 ft 424 kts 183°
2026-05-06 14:31 48.89717 13.74685 35759 ft 423 kts 183°
2026-05-06 14:31 48.83838 13.75001 35747 ft 422 kts 183°
2026-05-06 14:32 48.77969 13.75316 35751 ft 422 kts 183°
2026-05-06 14:32 48.72108 13.75630 35752 ft 421 kts 183°
2026-05-06 14:33 48.66260 13.75943 35744 ft 420 kts 183°
2026-05-06 14:33 48.60427 13.76254 35744 ft 420 kts 183°
2026-05-06 14:34 48.54565 13.76565 35740 ft 420 kts 184°
2026-05-06 14:34 48.48732 13.76876 35730 ft 419 kts 183°
2026-05-06 14:35 48.42912 13.77183 35738 ft 418 kts 184°
2026-05-06 14:35 48.37101 13.77490 35722 ft 417 kts 184°
2026-05-06 14:36 48.31309 13.77795 35730 ft 417 kts 184°
2026-05-06 14:36 48.25519 13.78100 35727 ft 416 kts 184°
2026-05-06 14:37 48.19743 13.78403 35719 ft 415 kts 184°
2026-05-06 14:37 48.13970 13.78705 35720 ft 415 kts 183°
2026-05-06 14:38 48.08196 13.79007 35724 ft 415 kts 183°
2026-05-06 14:38 48.02427 13.79307 35722 ft 415 kts 183°
2026-05-06 14:39 47.96709 13.79605 35727 ft 414 kts 183°
2026-05-06 14:39 47.90933 13.79904 35728 ft 415 kts 183°
2026-05-06 14:40 47.85148 13.80204 35733 ft 416 kts 183°
2026-05-06 14:40 47.79350 13.80503 35746 ft 418 kts 183°
2026-05-06 14:41 47.73526 13.80803 35715 ft 420 kts 183°
2026-05-06 14:41 47.67694 13.81103 35772 ft 419 kts 183°
2026-05-06 14:42 47.61880 13.81402 35768 ft 418 kts 183°
2026-05-06 14:42 47.56057 13.81699 35782 ft 419 kts 183°
2026-05-06 14:43 47.50223 13.81996 35803 ft 420 kts 183°
2026-05-06 14:43 47.44381 13.82295 35798 ft 420 kts 183°
2026-05-06 14:44 47.38546 13.82592 35813 ft 420 kts 183°
2026-05-06 14:45 47.29786 13.83036 35825 ft 420 kts 184°
2026-05-06 14:45 47.23936 13.83332 35847 ft 422 kts 183°
2026-05-06 14:46 47.18058 13.83629 35834 ft 423 kts 183°
2026-05-06 14:46 47.12176 13.83925 35855 ft 424 kts 183°
2026-05-06 14:47 47.06278 13.84221 35839 ft 425 kts 183°
2026-05-06 14:47 47.00365 13.84517 35830 ft 426 kts 183°
2026-05-06 14:48 46.94433 13.84814 35865 ft 428 kts 183°
2026-05-06 14:48 46.88471 13.85111 35877 ft 429 kts 183°
2026-05-06 14:49 46.82501 13.85409 35865 ft 429 kts 182°
2026-05-06 14:49 46.76532 13.85705 35870 ft 430 kts 182°
2026-05-06 14:50 46.70549 13.86002 35858 ft 430 kts 182°
2026-05-06 14:50 46.64563 13.86297 35871 ft 430 kts 182°
2026-05-06 14:51 46.58591 13.86592 35876 ft 430 kts 182°
2026-05-06 14:51 46.52608 13.86887 35869 ft 430 kts 182°
2026-05-06 14:52 46.46628 13.87181 35881 ft 430 kts 182°
2026-05-06 14:52 46.40653 13.87474 35891 ft 430 kts 182°
2026-05-06 14:53 46.34717 13.87763 35905 ft 430 kts 182°
2026-05-06 14:53 46.28747 13.88055 35885 ft 428 kts 182°
2026-05-06 14:54 46.22778 13.88346 35904 ft 429 kts 182°
2026-05-06 14:54 46.16809 13.88636 35909 ft 429 kts 182°
2026-05-06 14:55 46.10843 13.88926 35912 ft 429 kts 182°
2026-05-06 14:55 46.04881 13.89214 35930 ft 429 kts 182°
2026-05-06 14:56 45.98916 13.89501 35925 ft 429 kts 182°
2026-05-06 14:56 45.92954 13.89789 35925 ft 429 kts 182°
2026-05-06 14:57 45.86987 13.90076 35915 ft 429 kts 182°
2026-05-06 14:57 45.81020 13.90362 35916 ft 430 kts 182°
2026-05-06 14:58 45.75045 13.90648 35922 ft 429 kts 182°
2026-05-06 14:58 45.69074 13.90933 35923 ft 430 kts 182°
2026-05-06 14:59 45.63087 13.91219 35923 ft 430 kts 182°
2026-05-06 14:59 45.57101 13.91503 35924 ft 430 kts 182°
2026-05-06 15:00 45.51116 13.91787 35926 ft 430 kts 182°
2026-05-06 15:00 45.45175 13.92068 35926 ft 430 kts 182°
2026-05-06 15:01 45.39189 13.92352 35923 ft 430 kts 182°
2026-05-06 15:01 45.33200 13.92634 35934 ft 431 kts 182°
2026-05-06 15:02 45.27206 13.92916 35936 ft 431 kts 182°
2026-05-06 15:02 45.21225 13.93197 35953 ft 431 kts 182°
2026-05-06 15:03 45.15230 13.93478 35954 ft 431 kts 182°
2026-05-06 15:03 45.09228 13.93759 35963 ft 431 kts 182°
2026-05-06 15:04 45.03230 13.94038 35962 ft 431 kts 183°
2026-05-06 15:04 44.97230 13.94318 35956 ft 432 kts 183°
2026-05-06 15:05 44.91225 13.94597 35963 ft 432 kts 183°
2026-05-06 15:05 44.85219 13.94876 35966 ft 432 kts 183°
2026-05-06 15:06 44.79204 13.95154 35963 ft 433 kts 183°
2026-05-06 15:06 44.73190 13.95432 35958 ft 433 kts 183°
2026-05-06 15:07 44.67167 13.95709 35955 ft 433 kts 183°
2026-05-06 15:07 44.62156 13.95940 35943 ft 433 kts 183°
2026-05-06 15:08 44.56128 13.96216 35935 ft 434 kts 183°
2026-05-06 15:08 44.50094 13.96493 35935 ft 434 kts 183°
2026-05-06 15:09 44.44056 13.96769 35935 ft 434 kts 183°
2026-05-06 15:09 44.38024 13.97044 35928 ft 434 kts 183°
2026-05-06 15:10 44.31989 13.97319 35928 ft 433 kts 183°
2026-05-06 15:10 44.25967 13.97592 35926 ft 433 kts 184°
2026-05-06 15:11 44.19938 13.97866 35923 ft 433 kts 184°
2026-05-06 15:11 44.13928 13.98138 35921 ft 432 kts 184°
2026-05-06 15:12 44.07923 13.98409 35921 ft 432 kts 184°
2026-05-06 15:12 44.01922 13.98679 35920 ft 431 kts 184°
2026-05-06 15:13 43.95921 13.98949 35921 ft 431 kts 184°
2026-05-06 15:13 43.89919 13.99219 35924 ft 431 kts 184°
2026-05-06 15:14 43.83927 13.99487 35920 ft 431 kts 184°
2026-05-06 15:14 43.77936 13.99755 35920 ft 430 kts 184°
2026-05-06 15:15 43.71953 14.00022 35919 ft 430 kts 184°
2026-05-06 15:15 43.66017 14.00286 35920 ft 430 kts 184°
2026-05-06 15:16 43.60041 14.00552 35916 ft 429 kts 184°
2026-05-06 15:16 43.54072 14.00817 35920 ft 429 kts 184°
2026-05-06 15:17 43.48100 14.01081 35924 ft 429 kts 184°
2026-05-06 15:17 43.42139 14.01344 35918 ft 429 kts 184°
2026-05-06 15:18 43.36172 14.01607 35919 ft 429 kts 184°
2026-05-06 15:18 43.30206 14.01870 35921 ft 429 kts 184°
2026-05-06 15:19 43.24240 14.02132 35921 ft 429 kts 184°
2026-05-06 15:19 43.18272 14.02393 35921 ft 429 kts 185°
2026-05-06 15:20 43.12298 14.02655 35921 ft 430 kts 185°
2026-05-06 15:20 43.06321 14.02916 35922 ft 430 kts 185°
2026-05-06 15:21 43.00340 14.03176 35918 ft 430 kts 185°
2026-05-06 15:21 42.94360 14.03436 35916 ft 430 kts 185°
2026-05-06 15:22 42.88376 14.03696 35924 ft 430 kts 185°
2026-05-06 15:22 42.82389 14.03956 35914 ft 431 kts 185°
2026-05-06 15:23 42.76400 14.04214 35915 ft 431 kts 185°
2026-05-06 15:23 42.70408 14.04472 35911 ft 431 kts 185°
2026-05-06 15:24 42.64413 14.04731 35909 ft 431 kts 185°
2026-05-06 15:24 42.58416 14.04989 35913 ft 431 kts 185°
2026-05-06 15:25 42.52418 14.05246 35906 ft 431 kts 185°
2026-05-06 15:25 42.46416 14.05503 35903 ft 432 kts 185°
2026-05-06 15:26 42.40449 14.05758 35909 ft 432 kts 185°
2026-05-06 15:26 42.34440 14.06014 35908 ft 432 kts 186°
2026-05-06 15:27 42.28435 14.06270 35913 ft 432 kts 186°
2026-05-06 15:27 42.22422 14.06525 35931 ft 432 kts 186°
2026-05-06 15:28 42.16413 14.06781 35932 ft 432 kts 186°
2026-05-06 15:28 42.10410 14.07035 35945 ft 431 kts 186°
2026-05-06 15:29 42.04394 14.07289 35953 ft 432 kts 186°
2026-05-06 15:29 41.98390 14.07542 35961 ft 432 kts 186°
2026-05-06 15:30 41.92389 14.07795 35938 ft 432 kts 186°
2026-05-06 15:30 41.86368 14.08356 35966 ft 438 kts 180°
2026-05-06 15:31 41.80327 14.09544 35929 ft 438 kts 180°
2026-05-06 15:31 41.74290 14.10749 36018 ft 440 kts 180°
2026-05-06 15:32 41.65221 14.12557 35986 ft 439 kts 180°
2026-05-06 15:32 41.59170 14.13760 35988 ft 439 kts 180°
2026-05-06 15:33 41.53117 14.14962 35999 ft 440 kts 180°
2026-05-06 15:33 41.47064 14.16160 35997 ft 440 kts 179°
2026-05-06 15:34 41.41003 14.17360 35993 ft 440 kts 179°
2026-05-06 15:34 41.34942 14.18556 36002 ft 440 kts 179°
2026-05-06 15:35 41.28879 14.19750 36016 ft 440 kts 179°
2026-05-06 15:35 41.22826 14.20940 36010 ft 439 kts 179°
2026-05-06 15:36 41.16783 14.22127 36023 ft 439 kts 179°
2026-05-06 15:36 41.10742 14.23310 36013 ft 439 kts 179°
2026-05-06 15:37 41.04704 14.24491 36019 ft 439 kts 179°
2026-05-06 15:37 40.98665 14.25669 36016 ft 439 kts 179°
2026-05-06 15:38 40.92625 14.26846 36016 ft 439 kts 179°
2026-05-06 15:38 40.86582 14.28021 36021 ft 439 kts 179°
2026-05-06 15:39 40.80535 14.29195 36015 ft 439 kts 179°
2026-05-06 15:39 40.74487 14.30367 36017 ft 440 kts 179°
2026-05-06 15:40 40.68430 14.31538 36012 ft 440 kts 179°
2026-05-06 15:40 40.62363 14.32710 36010 ft 441 kts 179°
2026-05-06 15:41 40.56319 14.34301 36007 ft 450 kts 169°
2026-05-06 15:41 40.50380 14.36748 35999 ft 451 kts 169°
2026-05-06 15:42 40.44345 14.39226 36002 ft 451 kts 169°
2026-05-06 15:42 40.38386 14.41672 36003 ft 452 kts 169°
2026-05-06 15:43 40.32382 14.44132 35999 ft 452 kts 169°
2026-05-06 15:43 40.26370 14.46590 35999 ft 453 kts 169°
2026-05-06 15:44 40.20356 14.49045 35992 ft 453 kts 169°
2026-05-06 15:44 40.14334 14.51498 35996 ft 453 kts 169°
2026-05-06 15:45 40.08308 14.53949 35992 ft 453 kts 169°
2026-05-06 15:45 40.02286 14.56393 35992 ft 454 kts 169°
2026-05-06 15:46 39.96254 14.58837 35991 ft 454 kts 169°
2026-05-06 15:46 39.90218 14.61278 35993 ft 454 kts 169°
2026-05-06 15:47 39.84176 14.63717 35992 ft 455 kts 169°
2026-05-06 15:47 39.78130 14.66153 35990 ft 455 kts 169°
2026-05-06 15:48 39.72610 14.68373 35990 ft 456 kts 169°
2026-05-06 15:48 39.66550 14.70806 35988 ft 456 kts 169°
2026-05-06 15:49 39.60488 14.73235 35987 ft 457 kts 169°
2026-05-06 15:49 39.54413 14.75666 35966 ft 455 kts 169°
2026-05-06 15:50 39.51411 14.76866 35423 ft 450 kts 169°
2026-05-06 15:50 39.48418 14.78061 34651 ft 451 kts 168°
2026-05-06 15:50 39.45416 14.79258 33924 ft 453 kts 168°
2026-05-06 15:50 39.42396 14.80461 33020 ft 456 kts 168°
2026-05-06 15:51 39.39358 14.81670 32174 ft 458 kts 168°
2026-05-06 15:51 39.36310 14.82882 31449 ft 458 kts 168°
2026-05-06 15:51 39.33277 14.84087 30859 ft 454 kts 168°
2026-05-06 15:51 39.30253 14.85287 30102 ft 456 kts 168°
2026-05-06 15:52 39.27218 14.86491 29211 ft 457 kts 167°
2026-05-06 15:52 39.24172 14.87697 28320 ft 459 kts 167°
2026-05-06 15:52 39.22148 14.88499 27743 ft 460 kts 167°
2026-05-06 15:52 39.19088 14.89710 26880 ft 461 kts 167°
2026-05-06 15:53 39.16019 14.90922 26021 ft 462 kts 167°
2026-05-06 15:53 39.12947 14.92136 25161 ft 463 kts 167°
2026-05-06 15:53 39.09872 14.93349 24430 ft 461 kts 167°
2026-05-06 15:53 39.06820 14.94552 23820 ft 456 kts 167°
2026-05-06 15:54 39.03803 14.95740 23165 ft 452 kts 167°
2026-05-06 15:54 39.00808 14.96919 22470 ft 447 kts 167°
2026-05-06 15:54 38.97849 14.98082 21803 ft 443 kts 167°
2026-05-06 15:54 38.94920 14.99232 21161 ft 438 kts 166°
2026-05-06 15:55 38.92019 15.00371 20535 ft 434 kts 166°
2026-05-06 15:55 38.89147 15.01497 19948 ft 429 kts 166°
2026-05-06 15:55 38.86307 15.02610 19386 ft 425 kts 166°
2026-05-06 15:55 38.83499 15.03710 18848 ft 420 kts 166°
2026-05-06 15:56 38.80712 15.04800 18277 ft 417 kts 166°
2026-05-06 15:56 38.77949 15.05880 17651 ft 414 kts 166°
2026-05-06 15:56 38.75210 15.06950 17059 ft 410 kts 166°
2026-05-06 15:56 38.72494 15.08011 16477 ft 406 kts 166°
2026-05-06 15:57 38.69909 15.09462 15939 ft 408 kts 150°
2026-05-06 15:57 38.67718 15.11709 15816 ft 397 kts 144°
2026-05-06 15:57 38.65634 15.13917 15732 ft 382 kts 144°
2026-05-06 15:57 38.63636 15.16049 15564 ft 364 kts 144°
2026-05-06 15:58 38.61736 15.18083 15244 ft 350 kts 144°
2026-05-06 15:58 38.59892 15.20060 15086 ft 341 kts 144°
2026-05-06 15:58 38.58087 15.21995 14720 ft 339 kts 144°
2026-05-06 15:58 38.56278 15.23934 14315 ft 340 kts 144°
2026-05-06 15:59 38.54578 15.25755 13942 ft 340 kts 144°
2026-05-06 15:59 38.53206 15.27223 13628 ft 339 kts 144°
2026-05-06 15:59 38.51396 15.29162 13180 ft 339 kts 143°
2026-05-06 15:59 38.49597 15.31086 12665 ft 335 kts 143°
2026-05-06 16:00 38.47822 15.32985 12158 ft 331 kts 143°
2026-05-06 16:00 38.46091 15.34836 11678 ft 328 kts 143°
2026-05-06 16:00 38.44347 15.36697 11180 ft 325 kts 142°
2026-05-06 16:00 38.42620 15.38540 10666 ft 323 kts 142°
2026-05-06 16:01 38.40903 15.40371 10153 ft 321 kts 142°
2026-05-06 16:01 38.39200 15.42186 9616 ft 318 kts 142°
2026-05-06 16:01 38.37509 15.43987 9061 ft 315 kts 142°
2026-05-06 16:01 38.35841 15.45762 8518 ft 309 kts 142°
2026-05-06 16:02 38.34268 15.47436 8210 ft 297 kts 142°
2026-05-06 16:02 38.32671 15.49134 7985 ft 282 kts 142°
2026-05-06 16:02 38.31197 15.50700 7642 ft 274 kts 142°
2026-05-06 16:02 38.29720 15.52267 7176 ft 278 kts 142°
2026-05-06 16:03 38.28347 15.53985 6916 ft 278 kts 128°
2026-05-06 16:03 38.27390 15.56125 6602 ft 280 kts 120°
2026-05-06 16:03 38.26524 15.58339 6231 ft 278 kts 119°
2026-05-06 16:03 38.25674 15.60535 5866 ft 276 kts 119°
2026-05-06 16:04 38.24833 15.62719 5490 ft 274 kts 117°
2026-05-06 16:04 38.24435 15.65079 5125 ft 277 kts 91°
2026-05-06 16:04 38.24921 15.67435 4866 ft 279 kts 64°
2026-05-06 16:04 38.26112 15.69360 4596 ft 278 kts 40°
2026-05-06 16:05 38.27823 15.70399 4470 ft 271 kts 11°
2026-05-06 16:05 38.29683 15.70315 4467 ft 270 kts 343°
2026-05-06 16:05 38.31437 15.69444 4488 ft 271 kts 334°
2026-05-06 16:05 38.33028 15.68199 4445 ft 268 kts 313°
2026-05-06 16:06 38.33994 15.66225 4458 ft 262 kts 284°
2026-05-06 16:06 38.34115 15.63961 4459 ft 255 kts 256°
2026-05-06 16:06 38.33552 15.61852 4484 ft 248 kts 244°
2026-05-06 16:06 38.32814 15.59903 4462 ft 240 kts 231°
2026-05-06 16:07 38.31656 15.58507 4481 ft 222 kts 215°
2026-05-06 16:07 38.30448 15.57387 4470 ft 207 kts 214°
2026-05-06 16:07 38.29326 15.56409 4484 ft 189 kts 205°
2026-05-06 16:07 38.28105 15.55902 4484 ft 182 kts 190°
2026-05-06 16:08 38.26869 15.55784 4450 ft 176 kts 179°
2026-05-06 16:08 38.25676 15.56026 4383 ft 173 kts 165°
2026-05-06 16:08 38.24553 15.56600 4322 ft 175 kts 159°
2026-05-06 16:08 38.23422 15.57215 3957 ft 179 kts 159°
2026-05-06 16:09 38.22282 15.57824 3687 ft 176 kts 159°
2026-05-06 16:09 38.21144 15.58427 3356 ft 178 kts 160°
2026-05-06 16:09 38.20003 15.59009 3064 ft 177 kts 160°
2026-05-06 16:09 38.18857 15.59587 2759 ft 177 kts 161°
2026-05-06 16:10 38.17716 15.60177 2496 ft 176 kts 161°
2026-05-06 16:10 38.16546 15.60500 2258 ft 169 kts 176°
2026-05-06 16:10 38.15422 15.60620 2107 ft 156 kts 177°
2026-05-06 16:10 38.14378 15.60755 1798 ft 146 kts 173°
2026-05-06 16:11 38.13457 15.61118 1655 ft 138 kts 158°
2026-05-06 16:11 38.12591 15.61634 1478 ft 137 kts 156°
2026-05-06 16:11 38.11743 15.62184 1280 ft 136 kts 155°
2026-05-06 16:11 38.10904 15.62726 1030 ft 135 kts 156°
2026-05-06 16:12 38.10055 15.63271 746 ft 138 kts 155°
2026-05-06 16:12 38.09202 15.63826 490 ft 137 kts 157°
2026-05-06 16:12 38.08359 15.64364 221 ft 133 kts 159°
2026-05-06 16:12 38.07556 15.64879 62 ft 119 kts 155°
2026-05-06 16:13 38.07049 15.65205 42 ft 52 kts 153°
2026-05-06 16:13 38.06887 15.65316 38 ft 11 kts 191°
2026-05-06 16:13 38.06892 15.65292 38 ft 7 kts 344°
2026-05-06 16:13 38.07001 15.65239 41 ft 25 kts 329°
2026-05-06 16:14 38.07171 15.65126 46 ft 29 kts 332°
2026-05-06 16:14 38.07307 15.65133 52 ft 13 kts 67°
2026-05-06 16:14 38.07315 15.65157 50 ft 7 kts 67°
2026-05-06 16:14 38.07340 15.65229 49 ft 7 kts 62°
2026-05-06 16:15 38.07362 15.65280 51 ft 2 kts 61°
2026-05-06 16:15 38.07361 15.65291 52 ft 2 kts 118°
2026-05-06 16:15 38.07359 15.65296 52 ft 0 kts 118°
2026-05-06 16:22 38.07359 15.65295 52 ft 0 kts 118°
2026-05-06 16:24 38.09779 15.63448 654 ft 139 kts 155°
2026-05-06 16:24 38.10224 15.63163 792 ft 137 kts 155°
2026-05-06 16:24 38.10112 15.63235 754 ft 138 kts 155°